Tracking 30922 objects as of 2-Jul-2025
HD Live streaming from Space Station
objects crossing your sky now

THOR ABLESTAR DEB

Track THOR ABLESTAR DEB now!
10-day predictions


NORAD ID: 13514
Int'l Code: 1961-015KX
Perigee: 888.8 km
Apogee: 1,262.2 km
Inclination: 66.7 °
Period: 106.6 minutes
Semi major axis: 7446 km
RCS: 0.0184 m2 (small)
Launch date: June 29, 1961
Source: United States (US)
Launch site: AIR FORCE EASTERN TEST RANGE (AFETR)

Note: This is SATELLITE DEBRIS
Your satellite tracking list
Your tracking list is empty




NASA's NSSDC Master Catalog

Two Line Element Set (TLE):
1 13514U 61015KX  25182.90615615  .00000169  00000-0  30419-3 0  9994
2 13514  66.7149 108.6973 0250750 252.9010 169.4553 13.51054254217240
Source of the keplerian elements: AFSPC